Theta_e
358 354 349 351 350 353 359 358 351 354 355 337 336 343 340 349 356 355 359 355 354 352 352 354 354 356 358 361 363 361 360 363 365 358 346 349 355 352 353 358 354 351 356 355 352 353 355 355 353 350 348 349 350 351 353 355 357 356 356 354 353 353 352 351 351 351 350 350 350 349 347 346 346 346 346 346 346 347 346 345 345 345 344 343 344 344 342 343 341 338 337 336 335 337 340 342 343
358 354 353 355 351 357 361 357 352 353 349 333 334 342 339 351 360 357 360 355 355 354 354 355 358 361 358 359 360 363 364 357 355 356 352 353 355 350 350 355 353 351 356 356 355 355 358 357 355 356 354 354 352 353 353 355 356 355 356 354 352 352 352 351 351 349 348 349 351 350 346 345 346 347 348 347 348 350 348 345 346 346 345 344 343 343 342 343 343 340 337 336 336 337 340 342 342
354 353 354 354 352 356 363 360 348 345 342 332 333 342 346 355 360 356 354 355 357 354 355 355 357 357 357 364 362 366 365 354 352 354 353 353 354 351 349 352 353 352 355 356 356 357 359 358 357 357 356 355 354 354 353 354 355 354 356 354 352 352 351 350 350 349 348 350 351 348 346 347 347 349 351 349 350 349 346 343 344 345 344 343 342 342 342 342 342 341 340 339 340 340 342 342 342
346 350 350 354 360 360 374 377 362 350 336 333 336 341 353 355 356 355 353 355 354 353 354 354 359 354 360 372 363 363 361 354 354 353 353 352 352 350 348 352 354 352 354 356 357 358 358 357 357 356 353 354 353 354 353 353 353 353 354 354 353 351 351 349 350 350 349 350 349 346 347 348 347 350 352 351 350 345 343 342 341 341 342 341 342 342 341 341 341 340 340 340 341 340 340 341 342
343 349 348 353 371 366 372 373 365 354 335 339 342 342 354 353 355 354 353 353 352 355 353 358 362 354 359 363 358 364 361 354 354 351 353 352 351 348 348 352 353 351 353 355 357 358 356 356 355 353 351 352 353 353 354 353 352 352 351 354 353 352 352 350 350 350 347 347 347 346 349 347 346 349 350 350 348 344 344 345 342 341 342 340 341 341 341 340 340 339 339 339 338 338 339 341 342
344 349 349 354 367 362 362 347 342 350 345 351 344 342 354 351 354 353 352 353 353 357 355 359 359 357 359 356 356 359 356 355 354 352 353 354 352 348 349 352 352 352 353 355 355 356 356 356 354 351 350 350 353 353 354 354 353 352 349 350 351 353 354 352 352 350 347 346 347 349 351 351 350 350 350 350 348 346 345 344 344 343 342 341 340 339 340 340 340 340 339 339 338 338 339 340 342
347 355 359 359 360 362 369 346 342 356 347 349 346 345 352 350 352 351 354 355 356 355 355 357 354 360 362 357 359 356 354 355 354 353 354 355 352 349 351 352 351 350 352 352 350 352 352 352 352 351 351 350 351 352 352 353 353 351 349 349 348 349 350 349 348 348 346 345 349 352 353 352 352 352 350 350 348 347 346 345 346 345 344 342 340 339 340 340 339 339 340 340 339 340 339 339 341
348 362 366 367 366 368 371 350 348 357 339 340 346 347 350 351 351 352 355 356 357 356 355 354 352 364 362 358 364 359 355 355 353 354 355 355 352 351 352 351 351 349 350 351 348 348 349 349 351 351 352 351 351 351 352 354 353 351 351 350 348 347 345 343 342 343 344 344 349 351 352 353 352 350 348 347 348 349 349 348 348 346 346 344 340 341 343 343 340 339 339 338 339 338 339 341 344
350 361 361 361 362 359 354 341 340 347 339 340 346 350 351 350 351 353 357 356 357 355 355 356 357 367 362 361 364 358 355 355 354 355 355 355 353 352 351 350 350 349 349 350 348 348 350 349 349 351 352 351 352 351 352 353 353 353 352 350 349 347 345 343 342 343 343 345 349 350 350 353 352 349 345 342 342 343 345 346 346 346 346 343 339 341 342 344 345 342 340 341 341 340 342 344 344
354 356 360 364 359 347 337 334 339 342 338 341 346 352 351 349 352 355 359 358 358 358 357 357 362 366 362 363 364 358 356 355 354 356 356 355 354 352 352 350 349 350 350 348 347 348 350 348 347 350 349 349 351 351 352 353 352 351 351 351 349 347 346 344 344 343 343 345 348 349 349 351 353 350 346 344 341 342 344 346 347 347 346 342 340 342 341 343 345 342 342 345 342 343 347 348 346
362 350 353 362 350 336 330 334 344 342 338 344 346 348 348 348 354 358 360 361 360 363 359 358 364 363 362 363 362 358 356 355 356 357 356 355 354 353 353 352 348 349 351 348 347 347 348 347 347 348 347 348 349 349 351 352 351 350 350 352 349 346 345 344 345 344 343 344 345 348 349 348 349 347 347 347 345 346 347 346 346 348 347 343 341 339 339 341 342 342 344 346 344 346 350 348 347
363 354 354 354 339 333 336 338 340 342 343 347 347 344 348 349 358 361 360 361 361 362 359 360 364 363 365 364 360 357 356 357 357 357 357 356 355 354 353 352 349 348 349 348 348 348 346 347 348 347 347 347 347 347 350 351 350 350 350 350 348 346 346 345 345 345 344 345 345 347 349 349 347 344 344 344 343 345 345 343 341 345 345 340 338 335 339 342 340 341 344 346 346 346 349 348 345
358 361 360 345 339 342 340 338 339 345 346 345 345 342 348 351 358 360 359 360 359 361 359 358 358 362 366 362 360 357 356 357 357 358 356 356 356 355 354 352 350 348 348 348 349 351 349 348 350 351 351 350 350 349 350 350 349 349 347 345 345 344 345 345 345 345 345 347 347 348 350 351 349 347 345 344 345 343 344 345 341 342 343 341 337 335 342 346 342 341 343 345 347 344 348 351 347
356 361 358 342 346 349 338 335 338 341 340 343 344 343 350 351 354 356 359 361 358 358 356 356 357 364 365 361 362 357 356 358 357 358 356 356 356 355 354 352 351 348 347 348 349 350 352 352 352 353 352 352 351 352 353 351 348 349 346 345 346 345 344 344 345 346 346 347 348 348 349 352 351 349 348 347 348 344 344 347 342 341 345 346 345 344 346 346 347 349 350 350 350 349 349 352 349
350 358 364 352 347 341 335 338 341 341 343 346 346 349 353 349 354 355 355 360 360 354 354 358 355 363 368 364 364 357 356 359 357 357 357 357 356 356 354 353 351 348 346 347 350 349 350 352 351 352 350 350 351 353 354 351 349 349 348 349 349 348 347 345 345 347 347 347 346 347 349 351 350 350 350 346 347 348 345 343 339 339 343 345 347 350 351 351 353 353 352 351 349 348 350 352 350
344 354 362 348 335 332 336 343 344 345 347 347 346 350 355 351 353 352 349 356 358 353 353 358 352 356 365 362 361 357 358 358 357 357 357 358 356 355 354 353 352 347 345 346 348 347 349 350 349 349 347 347 350 351 352 350 348 348 345 348 351 350 351 349 346 346 346 347 346 347 349 350 349 350 348 343 348 351 349 344 340 340 342 342 344 349 353 354 352 348 345 343 343 346 349 351 352
342 355 361 339 329 331 335 342 346 346 349 352 350 352 359 356 351 348 349 352 355 354 353 355 351 355 361 359 358 357 358 357 356 358 357 357 355 355 353 352 351 348 347 345 345 347 347 348 347 347 346 346 347 347 350 349 346 346 344 346 349 347 349 350 346 345 346 347 346 346 348 349 350 350 347 346 348 349 350 347 343 342 343 346 348 348 350 352 349 345 345 341 343 348 348 348 350
348 358 351 331 330 331 333 344 348 351 356 354 352 354 358 357 353 349 351 353 355 358 355 355 356 356 358 357 357 357 357 357 358 358 356 356 354 355 353 352 351 351 351 347 347 348 347 347 346 346 346 346 347 346 349 350 347 346 347 347 347 345 346 347 347 347 347 348 350 350 349 351 351 349 348 349 346 345 347 348 343 342 344 348 350 348 347 351 351 348 348 347 347 348 348 347 347
354 356 343 332 333 332 335 347 348 353 355 352 352 354 356 356 352 351 356 356 360 367 359 357 359 358 358 356 357 357 357 358 357 356 355 355 354 354 354 353 353 351 352 350 350 350 347 347 347 348 347 347 348 347 348 349 348 347 348 348 347 346 346 347 348 350 350 351 352 352 350 350 350 348 348 349 348 347 347 346 342 341 344 346 347 348 349 350 352 351 351 349 348 347 348 346 344
342 345 341 331 333 338 342 349 349 351 351 353 352 351 353 352 350 354 359 357 362 369 360 360 362 360 358 356 356 357 358 358 356 355 354 354 353 353 353 354 354 352 352 350 351 351 349 348 348 349 349 349 349 349 348 349 348 348 350 348 347 348 348 349 350 349 350 353 351 350 349 349 350 350 348 347 348 348 348 346 343 343 345 344 345 348 348 348 349 352 353 347 346 348 347 345 344
330 334 337 326 333 348 347 347 350 350 350 354 354 353 354 350 351 357 357 357 363 364 358 360 361 359 358 356 356 358 358 357 356 356 355 355 354 353 353 353 353 352 351 350 351 352 351 350 349 350 350 350 349 349 349 349 348 348 349 348 347 347 347 347 348 345 346 347 346 346 347 348 347 347 346 345 348 349 349 347 343 344 345 346 346 347 347 347 347 350 351 345 347 350 347 345 344
325 326 329 329 342 351 344 346 352 350 351 354 354 354 354 351 354 354 356 365 368 362 356 356 357 357 357 355 356 358 358 357 357 356 356 355 354 355 354 352 353 352 351 350 350 351 351 351 350 349 350 350 349 348 348 349 349 348 348 347 347 347 346 345 345 343 342 341 341 342 343 344 343 343 343 346 347 348 348 346 344 346 347 348 347 345 345 343 344 348 348 342 345 351 348 344 343
328 325 324 329 344 350 344 348 353 351 354 355 354 353 357 361 360 356 361 363 359 356 355 354 355 355 356 356 357 358 358 357 358 357 357 356 356 357 355 353 352 351 351 349 349 349 349 350 349 348 348 348 348 348 348 349 349 348 347 347 346 345 345 345 344 342 341 342 343 343 342 342 342 343 345 349 350 350 348 346 345 348 349 350 346 344 343 341 344 352 351 344 345 349 346 346 343
328 327 330 335 344 349 347 351 352 353 356 356 356 357 362 367 363 360 361 357 354 355 355 353 354 356 355 356 356 357 358 357 358 358 357 357 356 357 356 355 353 351 351 349 348 349 349 349 348 347 347 346 346 346 348 349 348 347 347 347 346 345 343 343 342 342 343 344 344 344 343 343 344 345 346 349 351 352 350 347 346 349 349 349 347 345 343 342 347 351 351 349 348 346 344 346 344
328 326 331 340 346 349 349 351 354 355 357 357 360 363 362 361 360 360 358 357 357 356 354 354 355 356 356 356 357 358 358 358 358 358 358 357 357 357 357 356 355 354 353 350 349 348 348 347 347 347 346 346 346 346 347 350 349 347 346 347 347 344 343 340 340 341 342 343 344 344 343 344 344 344 345 346 348 349 347 345 346 348 350 350 349 348 346 345 344 345 345 347 347 345 344 345 345
324 325 333 342 348 350 351 354 356 357 356 358 364 364 360 357 358 360 357 357 357 356 355 355 356 357 357 357 357 357 358 358 358 358 359 358 358 357 357 357 356 356 354 353 352 350 348 347 347 347 346 346 347 346 347 349 350 348 346 346 347 345 342 340 340 340 341 342 342 343 343 342 342 341 342 342 343 344 343 343 344 347 349 350 350 349 347 344 342 342 343 344 345 345 345 345 345
324 331 339 345 350 351 352 357 358 356 356 358 365 367 364 361 367 364 357 356 357 357 358 356 356 357 356 357 357 357 357 357 357 358 358 358 358 358 357 358 356 357 356 355 354 352 352 350 349 347 347 347 347 347 347 349 350 348 346 346 346 345 342 340 341 342 342 343 343 343 343 343 344 342 341 341 341 342 342 343 344 347 348 346 348 348 346 344 343 344 344 344 344 346 347 346 346
327 339 340 339 350 353 353 358 358 358 359 358 361 367 364 364 370 364 355 356 356 357 359 357 358 357 356 357 357 357 356 357 358 357 358 358 358 358 358 358 358 358 357 356 356 354 355 353 351 348 348 348 347 347 347 349 351 348 346 346 345 344 342 340 340 341 343 344 344 344 344 344 345 345 343 343 343 343 343 344 345 347 347 345 344 345 345 345 346 346 346 346 346 346 347 348 348
329 339 341 341 351 354 352 356 357 359 359 355 357 364 369 370 366 358 353 355 356 356 358 357 358 357 356 356 355 356 356 357 357 357 358 357 358 359 358 358 358 358 358 357 356 355 355 355 353 351 349 349 348 348 347 349 351 349 346 344 343 342 342 341 340 341 342 343 344 345 344 343 344 345 345 345 344 345 345 345 347 347 347 346 344 343 344 345 347 348 348 348 348 347 347 347 347
327 333 341 347 351 353 352 352 356 359 355 354 356 356 364 373 361 357 355 354 356 357 357 357 359 358 355 356 355 355 355 355 357 357 357 358 358 358 358 359 358 358 358 357 357 356 356 355 355 353 352 351 350 349 347 347 348 348 347 345 344 344 344 343 342 341 342 342 343 344 343 341 340 340 343 344 343 343 346 345 346 347 347 347 346 344 343 345 345 348 349 350 349 347 347 346 347
329 328 336 344 346 348 350 350 356 360 355 360 367 359 363 372 359 357 356 352 357 359 361 361 361 360 358 357 356 355 354 353 355 356 356 357 357 357 358 358 358 358 358 357 358 357 356 356 355 355 354 353 352 351 349 347 345 344 343 343 344 347 349 350 348 345 344 344 343 343 342 340 338 338 339 341 340 339 341 343 343 344 346 347 347 344 343 344 345 347 348 349 350 348 347 346 346
333 326 323 330 339 344 344 348 354 357 355 359 369 365 365 371 360 358 357 355 360 363 365 365 363 363 361 361 358 358 356 352 353 354 355 356 356 357 357 358 358 358 358 358 358 358 357 356 355 355 354 353 353 352 351 348 346 345 345 346 348 354 356 355 354 353 350 348 346 346 347 345 344 344 342 343 344 342 341 341 339 341 345 347 347 345 343 343 345 347 348 348 350 350 348 346 345
340 331 322 322 334 339 341 349 352 351 357 361 366 369 368 369 361 358 358 358 363 368 368 366 365 364 363 363 360 361 360 356 354 352 353 355 355 356 357 357 357 357 358 358 358 358 357 356 355 354 353 352 353 353 352 351 350 351 352 353 353 356 357 355 355 357 357 356 355 354 353 349 345 345 346 346 348 346 344 344 344 345 347 347 348 346 342 342 344 345 347 347 349 350 349 348 347
329 330 324 322 334 335 337 351 350 348 362 370 369 371 370 367 363 360 359 360 364 369 367 365 366 364 365 364 363 364 363 361 357 352 351 353 354 355 355 356 356 357 357 357 357 357 357 356 354 353 352 352 352 353 353 354 355 354 354 354 353 354 355 353 351 353 356 359 359 359 358 354 351 349 348 349 351 350 346 345 348 348 348 346 345 345 342 341 343 344 346 347 347 349 349 348 347
321 324 323 319 327 332 338 350 350 353 366 372 369 369 369 364 363 363 358 358 365 367 364 363 364 364 365 364 364 364 363 362 357 351 352 353 354 355 354 355 355 355 355 356 356 356 356 355 354 353 352 352 353 355 356 357 356 354 354 354 353 353 354 354 352 351 352 352 353 356 359 359 356 352 350 351 354 354 351 349 349 349 348 345 342 342 342 340 341 343 344 345 345 347 348 348 347
326 329 327 322 325 329 341 347 346 356 364 364 367 369 369 366 365 365 361 360 363 364 362 362 362 363 364 364 365 364 363 363 356 351 353 353 354 355 354 355 354 354 354 354 354 354 354 354 354 353 353 354 355 357 358 357 356 353 352 351 350 351 352 350 351 352 352 350 351 355 357 358 355 352 352 352 350 351 350 348 347 347 345 344 342 342 342 340 340 341 341 341 342 344 347 347 347
326 329 327 326 328 329 340 347 342 353 363 359 364 368 367 367 367 365 362 362 362 363 364 363 362 362 363 365 365 366 365 361 355 352 352 353 353 354 354 354 354 353 352 353 352 353 353 353 353 354 354 355 356 357 357 357 356 353 352 351 349 349 350 350 351 352 352 350 350 353 354 356 356 355 353 350 347 348 348 347 346 344 341 341 342 343 342 340 339 339 338 337 338 342 344 345 347
325 324 322 323 328 331 340 346 340 348 363 358 362 369 365 364 365 363 362 362 362 363 363 363 362 361 361 364 365 364 363 359 355 353 352 353 354 353 353 353 353 353 352 353 352 352 353 353 354 353 355 356 357 357 355 354 354 351 350 351 351 349 349 350 351 353 354 352 350 353 354 353 350 350 349 347 347 346 345 346 344 341 339 341 344 344 343 341 340 339 339 336 337 340 342 343 344
326 324 323 323 329 337 340 343 343 350 364 361 361 368 362 360 361 360 360 363 364 361 359 360 361 362 362 363 364 364 364 362 359 357 355 354 353 353 354 354 353 353 353 353 352 353 353 354 354 354 355 357 355 354 352 352 352 351 351 351 352 353 352 352 351 353 354 352 351 352 352 348 346 348 349 348 348 346 346 345 342 341 341 344 345 344 344 343 341 341 340 338 338 340 341 342 343
326 326 324 324 331 337 335 338 346 355 362 361 362 366 363 363 362 360 358 361 365 361 357 356 356 361 363 361 362 365 367 365 359 357 355 354 354 353 353 353 353 352 353 353 353 353 354 354 356 355 355 354 352 352 353 353 353 352 353 352 353 353 353 353 352 353 353 351 351 350 349 348 347 349 349 349 349 348 347 345 344 343 342 343 345 345 344 343 341 342 341 340 340 341 342 343 344
323 328 328 328 333 338 338 339 349 357 356 358 362 360 363 369 366 366 365 363 365 362 359 356 354 357 358 359 360 360 364 363 361 361 358 355 355 353 353 352 352 353 353 354 354 354 356 356 356 356 354 352 352 353 353 353 353 352 352 352 353 353 353 354 353 354 353 352 351 348 347 346 344 343 344 345 348 348 348 345 344 344 343 344 346 346 344 343 342 342 342 342 342 343 343 344 344
319 325 331 334 338 344 345 347 354 356 352 357 359 348 353 368 366 365 369 370 368 362 360 360 358 357 357 361 361 357 356 354 356 361 358 354 355 355 355 355 354 354 353 353 354 355 355 355 356 356 354 350 348 347 347 347 346 345 345 346 349 352 354 352 351 353 354 352 349 345 344 344 343 342 340 342 347 349 348 346 344 344 344 344 345 346 346 345 344 343 343 342 342 344 343 343 343
317 321 329 332 341 347 345 347 349 348 347 353 356 349 351 359 359 362 369 373 371 364 363 362 359 359 359 360 360 357 354 351 353 353 351 350 353 355 356 355 353 348 345 345 348 351 353 354 354 352 346 342 340 339 339 338 338 338 338 339 344 348 350 348 346 349 350 348 346 345 344 343 341 340 340 342 346 348 349 348 346 344 344 345 347 346 347 347 345 344 343 341 342 343 342 341 341
317 321 328 336 346 346 344 343 341 344 347 345 351 355 353 352 354 362 370 373 371 366 364 363 359 358 359 359 358 356 354 353 355 356 352 345 346 353 354 350 345 341 341 341 344 348 349 349 346 341 337 335 335 335 336 336 336 336 335 337 340 341 344 345 345 346 346 346 346 347 346 343 340 338 341 344 343 344 346 346 343 341 342 344 346 345 347 349 347 346 344 343 344 344 342 340 341
321 323 328 337 343 342 343 343 340 344 344 340 344 344 343 351 356 360 367 369 368 367 364 363 360 357 358 358 356 354 352 352 354 357 353 342 342 351 351 345 341 342 341 341 343 345 343 340 338 335 334 333 331 333 336 337 335 334 333 333 335 334 335 337 340 340 343 345 346 346 344 343 341 340 343 344 343 343 344 343 341 340 340 342 342 341 344 348 349 347 345 345 345 345 343 342 342
323 323 328 331 333 338 341 339 338 339 337 337 342 337 334 346 356 357 362 365 364 365 363 360 359 357 357 358 355 353 352 351 352 351 345 339 342 347 345 342 341 342 342 341 342 341 339 337 336 335 333 329 327 329 334 337 334 332 332 331 332 333 335 336 338 340 340 341 341 341 341 343 343 343 344 345 345 344 343 342 342 342 341 341 340 339 341 345 347 345 345 344 344 344 344 343 343
323 330 332 327 333 346 349 347 342 334 333 336 338 338 332 337 350 356 358 363 362 363 363 360 359 357 357 357 355 352 351 351 351 349 342 339 341 343 341 341 341 342 342 340 339 338 337 336 334 333 330 327 325 325 328 333 334 332 331 331 332 333 336 339 342 342 340 338 338 339 340 342 343 343 345 346 346 346 342 342 343 342 343 342 340 340 341 344 345 344 343 344 345 346 345 344 343
328 341 333 319 328 335 334 340 335 325 330 337 335 335 332 331 343 354 357 363 363 361 362 361 359 357 356 356 353 352 351 350 350 350 346 339 339 340 341 342 342 342 341 338 338 336 335 334 332 331 329 328 327 324 325 330 332 331 330 330 331 333 334 337 340 340 338 337 337 338 339 341 341 340 342 344 345 345 343 342 343 343 343 342 341 339 340 340 342 341 341 343 345 346 346 345 343
331 337 334 325 329 325 321 329 328 323 328 330 329 332 333 333 342 351 354 356 359 360 358 359 358 356 356 355 353 351 350 349 348 348 348 343 338 339 341 341 342 341 339 337 336 334 333 332 331 331 331 330 328 327 327 329 330 330 330 330 330 332 334 335 337 338 337 336 336 336 338 338 338 337 338 338 339 341 342 342 342 341 341 342 341 339 339 338 339 339 339 340 343 345 346 345 343
324 331 332 326 329 323 320 329 326 323 325 322 324 330 331 336 342 352 358 352 353 358 356 357 358 355 356 355 352 351 349 348 347 346 348 346 339 337 340 341 341 339 338 336 335 334 332 332 332 331 331 331 329 328 330 331 330 330 329 329 330 332 333 333 334 335 335 335 334 335 335 336 335 334 334 335 335 336 338 339 339 339 338 338 339 339 339 339 339 339 338 339 341 342 344 344 344
324 334 333 323 329 325 320 328 324 320 323 321 323 326 330 337 340 349 357 350 347 354 357 358 357 354 355 353 351 350 348 347 346 345 347 342 338 337 339 339 338 337 336 335 335 333 333 333 333 332 331 330 328 329 331 332 332 331 329 331 331 331 332 332 332 332 332 332 333 334 334 333 333 333 332 332 332 333 333 335 336 336 337 337 337 338 338 339 340 340 339 340 341 342 343 345 345
322 329 326 320 330 333 325 328 329 326 323 322 326 332 341 350 349 350 351 347 346 350 356 359 357 354 353 352 351 350 348 348 345 346 346 341 336 336 337 339 337 336 336 336 335 334 334 334 333 332 332 330 328 329 331 332 332 330 331 332 332 332 331 331 330 330 331 331 333 335 334 333 332 331 331 330 330 331 331 332 333 334 334 335 336 337 338 338 339 340 341 341 341 341 341 344 345
323 321 319 320 329 339 331 324 330 329 320 322 333 343 352 351 347 351 352 350 350 351 354 356 355 353 352 352 351 348 348 347 345 345 345 340 335 334 337 338 337 336 336 336 335 334 334 334 333 333 333 332 330 330 331 332 332 331 330 331 332 332 330 329 328 328 331 331 332 334 333 333 332 331 330 331 331 331 331 331 331 332 332 333 334 335 336 336 338 339 339 340 341 340 340 341 342
328 319 321 325 324 333 332 324 329 327 321 329 337 346 352 341 337 354 359 355 353 351 352 355 353 352 351 350 349 348 347 345 344 344 341 337 333 334 336 337 336 336 336 335 335 334 334 335 335 334 334 333 332 331 332 333 333 331 330 330 331 331 329 329 328 329 330 331 332 333 332 331 331 332 332 332 332 331 330 329 329 329 329 330 332 333 334 335 336 337 337 338 339 339 340 340 341
327 324 326 323 319 323 323 322 327 321 318 329 334 341 347 340 345 364 368 364 359 351 350 353 352 351 349 349 348 347 346 345 343 343 342 337 333 333 336 336 336 335 336 336 334 334 335 334 335 335 335 334 333 333 333 333 332 330 330 330 331 331 330 329 328 329 330 331 332 332 331 331 331 332 333 333 332 330 329 328 328 329 329 329 330 332 333 333 334 335 336 336 336 338 339 340 340
324 329 329 327 330 329 322 322 326 321 321 327 330 337 344 349 362 374 371 369 358 350 351 352 350 349 348 348 347 346 345 344 343 342 343 339 333 333 336 335 336 336 335 336 334 334 335 335 335 336 335 335 334 334 334 333 331 330 329 330 331 329 329 328 328 328 329 331 331 331 332 332 331 332 333 333 331 330 329 329 329 330 330 331 331 332 333 333 334 334 335 335 335 336 337 338 339
324 325 325 326 328 325 322 321 324 326 329 331 331 329 334 350 366 372 372 366 351 349 352 349 347 348 346 346 346 345 344 343 341 342 341 337 332 334 335 334 335 336 336 336 335 335 336 336 336 337 335 335 334 334 333 332 331 329 328 329 330 329 329 329 328 328 328 329 330 330 331 331 332 332 333 332 331 330 331 331 330 329 329 329 330 331 331 332 332 333 333 334 335 336 337 337 338
330 326 324 327 325 322 322 320 322 326 328 333 334 323 327 351 361 362 365 357 346 347 348 347 348 347 345 345 344 344 344 342 341 341 339 335 332 333 334 334 336 337 336 336 336 337 337 337 337 337 335 335 334 334 333 331 330 328 327 328 329 330 330 330 330 329 328 328 329 329 329 330 331 332 333 333 333 333 332 331 331 331 331 330 329 329 329 329 330 330 331 332 334 336 337 337 337
Wind_Speed
8 8 8 8 7 5 3 2 2 3 3 3 2 3 2 1 3 3 5 4 4 2 2 6 7 5 3 4 7 5 4 1 3 4 2 5 17 23 17 17 20 18 17 17 20 19 21 29 29 27 26 27 26 26 26 25 25 25 25 25 26 26 25 25 26 25 25 24 23 22 22 22 21 19 19 18 17 16 16 15 15 15 15 15 15 15 13 13 12 12 12 12 11 12 11 11 10
11 9 9 9 6 3 1 1 4 4 4 4 2 2 1 2 4 5 6 4 3 2 5 8 7 5 5 7 7 4 4 4 2 4 4 14 21 19 18 19 21 22 19 17 20 21 25 30 29 29 28 28 27 26 25 25 25 26 25 25 26 25 25 25 25 25 24 24 23 22 22 21 20 19 19 18 17 16 15 15 15 15 15 15 15 14 13 13 12 11 11 11 11 11 11 10 10
12 12 13 9 3 2 0 2 4 3 4 5 2 1 1 3 4 5 4 4 6 8 9 8 6 5 4 5 3 3 1 3 4 5 7 18 17 14 21 20 20 22 21 19 19 20 23 28 27 28 30 30 29 26 25 26 26 26 25 25 26 26 25 25 25 24 23 23 22 22 21 20 20 19 19 18 17 16 15 15 14 14 15 15 15 14 13 13 12 11 11 11 10 10 9 9 8
12 12 13 8 2 2 3 3 3 3 3 2 2 1 2 4 5 3 4 7 8 8 7 5 4 2 3 5 2 3 2 2 3 4 6 15 17 19 24 21 20 21 21 18 18 19 20 25 26 27 29 30 29 28 26 26 25 25 26 25 27 27 26 25 25 24 22 22 22 22 21 20 19 19 18 17 16 16 15 15 14 14 14 14 14 14 13 12 11 10 10 9 9 8 8 8 8
12 12 9 3 2 1 2 2 2 4 2 3 2 1 3 4 5 6 6 7 6 6 4 4 3 2 4 4 1 2 2 3 3 4 9 14 21 25 24 23 21 21 21 19 20 21 19 22 26 27 28 29 30 29 27 26 26 26 26 26 26 25 24 24 24 23 22 22 21 20 20 19 19 17 16 16 16 15 15 14 14 14 14 14 14 13 12 10 10 9 8 8 7 7 7 7 8
13 11 4 2 2 2 2 3 1 1 2 4 2 1 5 4 5 8 7 5 5 6 4 4 5 3 4 2 2 3 4 4 3 6 12 17 23 26 25 24 22 22 20 19 22 22 22 23 25 26 25 27 29 28 27 26 26 25 26 25 25 25 24 24 23 22 22 21 20 19 19 18 17 16 15 15 15 15 14 14 14 13 13 13 13 12 10 9 8 8 7 6 5 5 5 5 6
16 8 0 2 1 0 4 2 2 2 2 4 3 3 6 6 5 7 7 5 5 6 5 4 7 7 4 2 3 3 4 6 6 10 15 21 27 26 25 24 23 23 21 20 22 22 23 24 25 24 24 26 27 27 27 26 25 25 25 25 25 25 25 25 24 22 21 20 19 18 18 17 16 15 15 14 14 13 13 13 12 12 12 11 11 10 8 7 6 6 5 4 4 3 3 3 4
14 4 1 3 2 2 5 1 3 2 1 1 4 4 6 8 5 4 4 3 3 3 5 3 4 6 3 3 4 4 6 10 10 14 19 25 28 27 25 25 24 23 22 21 22 22 22 22 23 23 23 24 25 26 25 25 25 25 25 25 24 24 24 23 23 22 21 20 19 18 17 16 15 15 14 14 13 13 12 11 11 10 10 9 9 8 6 5 5 4 4 3 3 3 2 3 3
7 2 1 3 3 3 3 2 2 2 1 1 5 5 5 7 5 4 4 4 4 5 4 2 1 6 3 6 5 2 7 12 15 17 22 26 27 27 25 24 25 25 23 22 22 21 21 20 21 21 22 22 23 24 24 24 24 24 24 24 24 23 23 22 21 22 21 20 18 17 17 16 15 14 14 13 13 12 12 11 10 9 9 8 8 6 5 4 3 3 3 3 3 3 3 3 4
2 0 1 2 3 3 3 2 2 2 1 2 5 6 5 5 5 5 5 4 4 4 3 3 6 7 5 6 3 1 7 17 20 21 23 26 26 26 24 23 25 25 23 22 22 20 20 20 20 21 21 21 21 22 22 22 22 22 22 23 23 23 22 21 20 19 20 19 18 17 16 16 14 14 13 12 12 11 11 10 9 8 8 7 6 5 5 4 3 3 3 4 3 3 3 4 4
2 1 2 3 4 4 1 1 2 1 1 3 5 6 5 4 6 5 6 5 3 5 2 4 8 6 6 5 2 4 13 20 22 23 24 25 25 24 23 22 23 24 24 23 21 20 20 20 20 20 20 20 20 20 20 21 21 21 21 21 20 21 20 19 19 17 17 17 17 17 16 15 14 14 13 12 12 11 10 9 8 7 6 6 6 6 5 4 4 3 3 4 4 3 4 5 5
1 0 3 3 3 2 2 2 2 2 3 5 4 4 5 5 6 5 7 6 4 7 2 1 5 4 5 3 2 7 13 18 21 23 24 24 23 22 22 21 22 23 23 23 21 20 20 20 20 19 19 19 19 19 19 20 20 20 20 20 20 19 18 18 17 16 16 15 15 14 14 13 13 12 12 11 10 10 9 8 8 7 6 6 6 5 5 5 5 5 5 5 5 5 5 5 5
1 2 4 2 2 3 2 3 4 4 4 3 3 4 5 5 5 6 6 5 5 5 2 3 6 4 5 3 4 7 10 15 20 23 24 23 21 20 21 20 20 21 22 22 20 18 19 20 20 19 19 19 19 18 19 19 19 19 20 20 19 19 18 17 17 16 15 14 12 12 12 11 10 10 9 8 7 8 8 7 7 6 6 6 6 6 6 7 7 6 6 6 6 6 5 6 6
3 2 4 2 2 2 3 2 3 5 2 1 2 4 5 4 4 6 6 5 3 2 3 6 7 6 5 4 4 5 9 16 20 22 23 21 20 19 19 19 19 19 20 20 19 17 18 19 19 18 18 19 18 17 18 19 18 18 19 18 18 18 17 17 17 16 15 14 13 13 12 11 10 9 8 8 8 9 8 7 7 6 6 7 7 7 8 9 8 6 8 7 8 7 5 7 6
4 1 4 3 3 3 3 2 3 6 1 2 3 5 6 3 5 6 4 4 3 2 6 5 4 4 4 6 4 6 12 19 21 22 22 20 20 18 17 18 18 18 18 18 17 17 17 17 18 18 17 18 18 17 17 17 18 18 18 18 17 17 17 16 16 15 15 15 14 14 13 12 11 10 10 11 11 10 8 8 7 7 8 9 9 9 9 10 9 8 10 10 9 8 8 7 6
3 3 5 4 3 3 3 2 3 5 1 2 3 7 9 3 4 4 1 4 4 3 4 1 1 3 6 5 6 13 19 22 22 21 21 20 20 18 17 16 16 17 17 17 16 16 16 16 18 18 18 18 18 18 16 16 18 17 17 17 16 16 16 15 15 15 15 14 14 13 12 11 11 11 12 12 11 10 9 9 8 8 9 10 10 10 10 11 10 10 12 11 10 8 9 9 6
3 4 5 4 3 3 3 2 3 5 1 2 1 6 9 2 4 3 2 7 6 3 4 3 3 4 6 6 15 25 24 23 22 21 20 20 19 18 18 17 17 16 16 17 15 15 15 16 17 18 18 18 18 18 16 16 16 16 15 15 15 15 15 14 14 14 14 13 13 13 12 12 11 13 15 15 14 13 11 11 9 9 10 10 11 11 11 12 13 13 13 13 11 9 9 10 8
4 3 4 3 2 2 4 5 5 6 5 2 1 6 10 5 4 3 4 7 5 6 6 5 9 9 12 17 25 28 24 23 22 21 19 17 16 16 17 17 17 17 16 17 15 15 15 16 16 17 17 16 17 17 17 16 16 16 15 15 14 14 13 13 13 13 14 14 14 14 14 14 14 16 17 15 14 13 12 11 10 9 11 12 11 11 12 13 14 13 13 13 10 10 11 12 9
3 3 5 2 4 2 2 6 6 6 8 6 4 6 9 6 5 4 3 2 3 7 5 7 12 12 15 20 25 26 24 23 21 20 17 15 14 14 15 16 17 17 17 17 16 16 16 17 16 16 16 17 16 16 16 16 16 16 15 14 14 14 14 14 15 15 17 17 17 16 16 16 15 16 16 13 12 11 11 11 10 9 11 14 11 10 12 13 14 11 11 11 9 9 11 12 10
2 4 5 2 5 3 4 4 7 7 11 10 6 5 7 4 2 3 4 4 3 4 3 5 10 11 14 16 21 24 22 21 20 18 16 14 13 13 13 14 16 16 17 18 17 17 17 17 17 16 16 18 17 16 16 16 16 15 15 14 14 14 15 15 16 17 18 18 18 17 17 16 15 15 14 13 12 12 12 12 10 10 12 13 11 11 12 12 13 11 11 10 9 10 11 11 9
2 3 4 4 4 4 3 4 9 8 10 11 7 6 6 2 2 3 6 5 2 3 4 5 13 15 15 15 18 21 20 19 18 16 16 15 14 13 12 13 14 15 17 17 17 18 17 17 18 17 16 17 17 17 17 17 16 16 16 15 15 15 15 15 15 16 17 18 18 17 16 15 14 14 14 15 15 14 13 12 10 11 12 13 12 12 13 11 10 11 12 10 9 11 10 9 8
3 3 3 5 5 6 1 4 10 8 9 9 8 7 4 2 4 3 6 4 3 4 3 7 15 17 17 17 17 18 17 16 17 17 16 15 15 14 14 15 15 15 17 18 19 19 18 18 18 18 17 17 17 18 18 17 17 17 17 16 16 16 15 15 16 16 16 16 17 15 14 14 14 14 15 16 16 15 13 12 11 12 12 12 14 13 12 10 8 10 13 12 10 12 10 8 8
4 2 0 1 4 9 3 3 8 8 10 8 5 4 3 5 4 2 4 1 4 2 8 11 14 16 19 18 16 15 14 14 16 18 19 19 18 18 19 20 20 20 20 21 21 21 20 19 20 20 19 19 19 19 18 18 19 18 18 18 18 17 17 17 17 18 17 16 16 15 15 15 14 15 16 17 17 16 14 13 12 12 12 12 14 13 11 10 8 10 11 11 12 13 12 9 8
6 2 2 4 5 9 5 4 8 10 11 7 5 6 4 6 4 2 4 2 2 8 11 12 14 17 18 15 14 14 14 14 15 18 19 20 20 20 21 22 23 24 23 24 25 25 24 22 22 22 21 21 20 20 20 19 19 19 19 20 19 19 19 19 19 19 19 18 18 17 17 16 15 16 16 17 17 16 15 14 13 13 13 13 13 13 12 11 10 11 11 12 13 13 12 10 9
7 3 2 5 5 6 6 6 11 12 10 8 9 8 5 4 5 4 5 3 7 11 12 13 14 15 14 13 13 13 12 14 15 17 17 17 18 18 18 19 21 23 26 29 28 28 27 25 24 24 23 22 22 21 21 20 20 20 21 21 21 20 20 21 21 20 20 20 20 19 18 18 17 17 18 18 18 18 17 16 15 15 15 15 15 14 13 13 13 13 13 14 14 13 12 10 10
3 4 3 5 6 6 9 9 11 9 5 7 10 7 3 2 4 6 6 3 9 11 12 12 13 13 12 12 13 13 12 13 16 17 17 16 17 17 19 20 21 24 27 28 28 29 30 28 27 26 24 23 22 22 22 22 22 22 22 22 22 21 21 21 21 21 21 21 21 20 20 20 19 19 19 19 18 18 18 18 18 18 17 16 16 16 15 16 16 15 15 15 15 14 13 12 11
0 7 7 5 8 6 8 11 8 6 3 5 11 7 5 5 4 4 3 4 9 11 11 10 12 12 11 10 10 12 12 14 17 17 15 15 16 18 20 21 23 25 25 25 27 28 28 28 29 27 25 24 23 23 23 24 24 24 24 23 23 23 22 21 22 23 23 22 22 21 20 20 20 20 20 19 19 19 19 20 20 20 19 17 17 17 17 17 17 16 16 16 16 16 15 14 14
4 12 10 7 7 6 6 9 8 5 3 2 11 10 7 9 5 2 1 4 9 11 11 8 9 9 9 10 8 8 9 13 17 17 17 17 19 21 22 23 24 24 25 27 27 25 24 26 28 28 27 25 24 24 24 24 25 25 25 25 25 24 24 23 24 24 24 23 22 21 21 21 22 21 21 21 21 21 21 21 22 22 21 19 17 16 17 18 18 18 18 17 17 17 16 16 16
5 12 11 5 7 6 2 3 5 5 5 4 6 9 7 8 5 2 2 5 7 10 9 7 7 7 8 8 6 6 8 12 15 16 18 20 22 23 24 25 25 25 27 27 25 25 24 25 27 28 27 26 26 26 26 25 26 26 26 27 26 26 26 26 26 25 25 24 23 22 21 21 22 22 22 22 23 23 23 23 24 24 24 22 19 17 17 19 20 21 21 20 19 18 18 18 17
5 6 8 4 5 3 4 2 5 4 6 4 4 5 4 5 4 3 4 6 8 8 6 5 6 6 7 7 6 6 8 12 14 16 19 20 21 23 24 23 24 25 25 24 24 25 25 25 26 27 27 27 26 26 26 26 26 26 27 27 28 28 29 29 29 28 27 26 25 25 23 22 21 21 22 22 22 24 26 27 27 27 25 23 21 19 19 20 21 23 24 23 22 21 20 19 19
5 4 4 3 5 4 5 2 3 1 2 4 7 5 4 3 3 4 3 6 9 7 5 5 5 6 6 6 7 6 8 12 15 17 18 19 20 21 21 21 23 23 23 24 25 25 24 24 25 26 26 27 26 26 26 27 27 27 28 29 30 30 31 31 31 30 30 29 28 28 25 23 22 22 23 24 23 24 26 29 31 30 27 25 24 22 21 21 22 24 25 25 25 24 22 21 20
4 4 1 2 4 4 6 3 2 1 1 4 8 4 3 3 2 3 4 5 8 7 5 4 4 5 6 6 6 6 6 10 14 16 17 18 19 18 19 20 21 22 23 24 24 23 23 24 23 24 25 26 25 24 25 26 27 28 28 29 29 30 31 33 33 32 32 32 31 30 28 27 27 27 27 28 29 28 28 30 34 35 33 29 26 24 22 23 24 25 26 26 27 27 25 23 22
4 3 3 2 4 4 3 3 2 3 2 4 6 5 2 2 2 3 3 6 7 7 5 4 4 5 5 5 5 5 5 6 10 14 16 17 17 17 17 19 20 21 22 23 22 22 23 23 23 23 24 23 22 21 22 23 26 27 27 26 26 28 32 34 34 34 34 33 32 31 31 30 29 29 29 31 33 33 33 35 37 37 35 32 29 27 25 24 25 26 26 27 27 27 27 26 24
3 3 2 3 4 5 2 3 4 4 5 3 6 5 4 2 4 4 3 5 8 7 5 4 4 4 4 4 4 4 5 5 6 11 15 16 16 16 16 17 18 20 20 21 21 22 22 22 22 22 22 22 21 21 20 20 23 26 27 28 28 30 34 36 36 36 35 32 32 34 33 30 28 29 32 34 36 37 38 41 41 38 35 31 29 29 28 26 26 26 27 27 27 27 27 27 26
3 2 3 2 2 3 4 4 3 4 6 4 6 5 4 5 6 5 3 2 6 7 5 4 4 4 3 3 3 3 3 4 4 7 12 14 16 16 15 15 16 17 18 19 19 20 21 21 21 22 22 22 21 20 17 16 21 25 27 28 29 31 34 38 38 36 33 25 26 32 30 28 28 31 35 38 39 42 43 43 42 42 38 34 32 31 29 28 27 26 26 26 27 28 28 29 28
6 5 5 5 4 3 4 1 2 5 8 5 5 6 6 7 6 5 3 3 4 6 4 4 3 3 4 3 2 2 1 1 2 3 8 12 14 15 15 15 15 15 16 17 18 19 20 21 21 21 22 22 21 19 17 16 19 23 26 28 29 30 31 35 34 33 29 21 25 32 29 30 32 33 36 36 37 41 43 42 40 40 37 34 33 31 28 27 25 24 25 25 26 28 29 29 29
6 5 5 6 6 2 1 3 5 4 7 4 1 7 7 7 6 5 4 3 4 6 5 4 3 3 4 3 3 2 1 2 3 1 5 8 11 13 14 14 13 13 14 15 17 19 20 20 21 22 22 22 20 18 18 18 16 17 22 25 27 28 29 32 33 33 30 24 27 31 28 28 29 29 28 24 25 30 34 38 41 41 37 33 31 28 26 25 22 24 25 25 26 28 29 29 30
5 5 6 4 4 2 2 3 3 3 6 2 2 9 5 3 4 3 5 5 3 5 6 6 5 3 2 4 3 2 1 2 3 3 4 6 9 10 12 13 13 13 14 15 16 17 19 20 21 22 21 22 21 19 19 20 19 17 19 22 23 25 27 29 30 30 30 26 26 27 24 22 21 21 18 14 16 20 24 30 32 33 31 29 27 25 25 24 23 23 25 26 26 27 29 29 28
5 4 6 4 4 4 2 3 5 5 4 1 3 8 2 2 2 3 3 4 2 1 2 4 6 5 3 3 3 2 2 3 3 3 4 6 8 9 10 11 11 12 12 13 15 15 18 20 21 22 21 20 19 17 17 18 20 20 20 22 23 26 28 29 28 28 28 25 24 23 19 19 17 13 10 10 12 13 16 22 23 22 23 24 23 24 26 27 26 24 25 26 25 25 27 27 27
4 5 6 5 6 5 2 1 5 6 4 5 7 5 1 3 2 2 1 2 2 1 2 1 3 5 4 3 3 3 3 2 1 1 1 4 7 9 10 10 10 11 11 12 15 17 18 19 19 18 16 14 12 13 14 15 17 19 20 22 22 22 25 25 25 26 24 19 17 15 12 10 12 15 17 17 15 13 14 18 19 21 22 22 22 23 26 28 27 24 24 25 23 22 25 26 26
2 4 7 7 7 4 4 5 3 7 7 6 9 5 4 3 0 3 1 0 3 3 2 1 2 2 3 3 2 3 4 4 3 3 2 4 7 9 9 10 10 10 10 11 12 14 15 15 14 13 11 10 9 9 10 11 13 14 16 18 19 19 20 21 21 22 22 20 20 21 20 20 21 22 21 20 17 17 18 18 17 18 21 20 19 19 23 27 27 25 24 23 23 24 26 26 25
2 2 6 9 9 8 10 8 5 6 3 2 6 4 4 4 2 6 2 1 2 2 3 4 4 3 3 4 4 4 3 3 3 4 4 5 7 8 9 10 10 10 10 9 9 9 9 9 8 6 4 5 8 9 9 10 11 12 14 16 17 18 20 22 22 23 24 24 24 25 24 23 22 21 21 20 17 16 17 18 15 16 19 18 16 16 20 25 28 26 23 22 24 26 27 25 25
2 3 6 8 10 12 12 10 5 4 3 3 4 4 3 4 4 7 2 2 4 1 3 5 5 4 4 5 5 4 4 4 4 4 4 6 8 9 11 12 12 12 10 8 9 8 6 5 3 5 6 7 8 9 9 10 11 11 12 13 13 13 16 20 21 21 23 24 25 25 25 25 23 20 19 18 17 15 16 17 13 14 17 16 15 15 19 24 26 25 22 22 24 25 26 24 26
3 4 8 11 12 13 12 9 5 3 4 3 3 4 2 2 5 5 5 4 5 5 6 6 6 6 6 6 6 6 6 5 5 5 5 7 10 13 14 15 13 11 9 7 7 5 2 1 2 4 5 7 8 10 11 12 12 12 13 13 12 13 14 17 19 19 20 22 22 23 23 23 22 20 16 14 15 15 16 15 11 10 13 15 14 15 18 21 23 23 22 23 24 25 28 28 29
3 5 9 9 10 10 9 7 5 1 4 2 3 2 2 4 5 2 4 5 7 9 10 9 7 8 7 7 7 7 7 6 6 6 7 9 13 16 17 15 12 9 7 6 5 4 3 3 3 3 5 7 9 10 10 11 11 12 13 14 15 15 16 17 18 19 19 20 20 21 22 21 21 19 15 13 12 14 15 13 12 11 13 14 14 15 17 20 22 20 21 24 26 26 28 30 31
5 7 8 7 6 6 5 5 5 4 3 4 7 5 2 4 4 1 3 5 11 11 10 9 8 8 8 8 8 8 6 6 6 7 9 12 16 17 15 13 10 8 7 6 6 6 5 4 3 3 6 8 10 11 11 11 11 12 13 14 15 15 16 16 16 17 18 19 20 21 21 21 20 18 16 15 12 12 14 13 13 13 13 13 14 16 17 19 20 17 18 23 25 25 27 29 32
8 8 8 8 7 6 5 3 5 5 1 6 7 7 5 3 4 5 6 5 9 10 7 8 8 8 9 8 8 9 7 6 7 7 9 13 14 14 12 11 9 9 9 9 8 7 5 3 2 4 7 9 11 13 13 13 12 14 15 15 15 15 15 15 14 15 17 19 20 21 21 20 19 18 15 13 13 13 14 15 14 14 14 13 13 15 14 15 17 16 16 22 25 24 24 26 29
7 5 5 6 4 5 4 5 4 3 4 6 4 4 5 3 5 7 8 5 3 9 11 12 13 12 11 9 9 9 7 7 7 6 8 10 10 10 10 10 9 10 10 9 8 5 3 1 3 5 7 9 11 13 13 13 14 15 16 16 15 14 14 14 14 15 16 17 19 19 19 18 18 17 15 13 13 13 13 13 15 16 17 16 15 16 16 16 18 16 15 19 25 25 24 24 27
6 6 5 5 3 3 2 2 0 3 6 4 2 4 4 5 7 6 9 8 5 9 11 14 15 13 11 10 10 9 7 7 7 7 7 6 7 9 10 10 11 11 11 9 7 4 1 2 4 5 6 8 10 11 11 12 14 15 17 17 16 14 13 13 13 13 13 14 15 16 17 17 17 17 17 15 14 13 13 13 14 17 18 19 20 21 22 22 22 20 17 18 24 26 24 24 27
5 5 5 4 3 3 0 3 1 3 5 3 0 1 2 5 5 5 8 9 8 9 10 11 13 14 13 12 10 8 7 7 7 7 7 6 8 10 11 13 13 13 11 9 6 2 2 3 4 5 7 8 9 9 9 9 11 13 15 16 16 15 14 13 13 13 12 12 12 14 15 15 16 16 16 15 14 13 13 13 14 16 18 19 20 22 23 22 23 23 22 21 24 25 25 24 26
2 4 5 5 5 5 3 4 3 3 4 2 3 1 3 3 3 6 7 7 6 8 8 9 10 11 11 9 8 7 7 7 6 6 6 7 9 11 12 15 16 14 11 8 5 3 3 3 4 6 7 9 10 9 8 7 9 10 12 13 14 14 14 15 15 15 15 14 13 12 13 14 15 15 15 15 14 14 14 14 15 17 18 19 19 20 21 21 22 23 23 22 22 24 24 24 25
1 2 4 3 4 5 3 3 5 3 1 2 2 2 4 4 4 4 3 4 5 7 8 9 10 9 8 7 7 8 8 8 6 6 6 7 9 10 13 16 16 14 11 9 7 6 4 4 5 6 8 9 10 9 8 8 9 10 10 10 11 13 14 15 16 16 15 14 14 12 11 12 13 14 15 15 15 14 15 16 16 17 18 19 20 20 21 22 22 22 23 24 25 26 25 25 26
2 2 2 3 3 7 5 2 1 4 2 2 2 2 4 4 4 4 4 1 3 6 8 10 11 10 9 9 9 9 9 8 7 7 6 7 9 10 13 17 17 15 13 11 9 7 5 5 5 6 8 9 9 9 9 10 10 10 9 9 9 10 12 13 14 15 15 14 13 12 12 12 12 13 14 14 14 14 14 15 16 17 18 19 19 20 20 21 22 23 24 25 26 27 27 27 27
5 3 5 4 3 5 5 2 3 5 1 3 2 3 5 3 2 5 4 1 4 5 7 8 9 10 11 11 10 10 10 8 7 6 6 7 10 11 14 17 17 15 13 11 9 6 6 6 7 7 8 9 9 9 10 10 10 10 9 8 8 8 10 11 12 13 14 14 12 11 12 13 13 13 13 13 14 14 15 16 18 19 19 19 19 19 20 20 21 22 24 26 26 27 27 27 28
4 5 4 4 4 2 2 3 2 2 1 3 4 3 3 2 3 5 3 6 7 6 6 8 10 12 12 11 11 11 10 7 6 6 5 6 10 12 15 17 17 15 13 11 8 7 7 8 8 9 9 8 8 9 10 10 10 10 9 8 8 8 10 12 13 14 14 13 12 11 12 13 14 14 13 13 14 16 17 18 20 20 20 20 20 19 19 20 20 21 23 24 26 27 27 28 29
5 4 3 3 3 4 2 2 3 3 2 2 4 4 3 5 6 5 7 9 9 9 8 10 13 14 13 12 12 11 10 8 7 7 6 7 10 14 17 18 18 16 14 11 9 9 10 9 9 10 9 8 9 10 10 9 9 9 9 8 8 9 10 13 15 15 15 13 11 10 12 13 14 14 14 14 15 17 18 19 20 21 20 20 21 21 20 20 20 21 22 23 25 27 27 29 30
3 2 1 1 2 2 2 1 2 3 4 3 1 2 5 7 5 7 10 9 10 12 12 12 12 13 13 12 12 11 10 8 7 7 7 7 11 14 16 17 17 16 14 12 12 12 11 11 11 10 9 9 9 10 9 9 9 9 9 8 9 10 10 13 16 17 16 13 12 12 13 14 14 14 15 15 16 17 18 19 20 20 20 22 22 23 23 22 21 21 22 23 26 27 28 29 30
6 5 4 4 4 4 3 1 2 1 3 4 4 2 8 7 4 7 8 7 10 12 12 11 10 12 13 12 12 11 10 9 8 8 7 8 11 14 16 16 16 16 16 14 14 14 13 12 12 10 9 9 10 10 9 8 9 9 9 9 10 11 11 14 16 17 17 15 14 14 15 16 16 15 15 16 17 18 19 19 20 20 21 23 24 25 25 25 23 23 24 24 25 26 28 29 30
Wind_Direction
149 155 163 152 145 128 52 51 52 2 73 76 9 58 37 132 141 104 106 125 124 159 151 122 125 130 130 133 150 134 79 111 159 128 128 147 148 150 146 143 146 142 137 128 127 130 127 130 133 132 131 128 126 128 129 129 131 132 133 134 135 135 136 135 134 133 133 131 132 134 133 132 130 128 126 125 124 125 128 131 132 131 130 127 125 125 127 123 121 122 123 122 121 120 120 121 119
156 158 153 142 139 115 358 95 73 6 51 63 6 62 348 21 99 130 148 154 136 125 106 111 106 85 91 119 132 111 48 10 93 121 110 133 137 147 151 146 147 142 137 135 138 142 132 127 131 132 132 130 130 131 130 129 130 132 132 133 133 133 135 135 134 134 134 135 136 136 135 134 131 128 127 126 125 123 126 130 131 131 130 128 127 127 128 124 121 121 122 122 121 122 124 125 125
162 160 152 142 119 89 66 55 72 43 55 70 21 335 104 109 143 172 168 131 117 114 105 107 90 77 87 90 70 48 69 9 78 103 117 136 135 149 155 149 146 143 140 142 139 137 129 125 127 129 131 131 131 132 130 130 130 131 132 131 132 133 135 137 136 136 138 138 138 136 136 134 132 130 126 127 127 127 130 131 132 132 131 131 131 130 129 127 124 123 123 123 123 125 127 127 127
168 166 156 146 68 30 48 47 92 98 66 95 82 332 126 148 169 150 124 114 119 115 105 106 69 12 83 89 61 58 87 42 85 105 128 145 145 153 157 150 147 146 143 140 129 123 122 124 124 126 131 131 133 134 133 134 133 132 133 132 133 135 138 138 138 139 141 140 139 137 136 136 135 131 128 128 129 132 133 132 134 135 134 135 134 133 130 127 125 124 123 124 127 131 133 132 131
169 167 161 141 57 45 64 73 99 89 114 160 122 221 132 153 152 122 122 119 118 108 102 109 77 341 73 89 88 86 95 85 114 126 126 143 147 153 156 150 148 148 143 135 127 123 123 125 125 129 133 132 134 136 135 137 137 137 137 136 136 138 138 138 140 142 142 141 138 137 135 135 135 133 132 130 132 135 134 133 135 136 137 138 137 133 130 129 129 128 126 127 131 137 139 138 140
156 159 166 12 89 154 85 71 47 16 214 157 105 191 131 136 143 129 130 111 80 85 90 105 123 120 77 67 62 109 165 122 143 148 134 142 149 155 155 150 148 147 142 134 131 129 129 130 132 134 134 134 135 135 137 139 140 141 141 141 141 139 138 139 141 141 141 140 138 137 134 134 135 134 134 132 134 136 136 136 137 140 140 141 142 140 140 140 139 137 135 135 138 143 148 149 153
145 146 159 51 64 95 88 101 222 256 231 154 124 146 139 137 146 133 126 104 65 59 59 90 133 119 76 112 78 62 140 131 140 150 145 145 150 154 154 150 147 146 142 136 134 131 132 135 137 136 136 137 137 137 139 141 141 142 144 144 143 143 142 142 144 142 142 142 140 138 137 137 137 137 137 136 138 138 140 140 140 144 144 146 149 150 152 153 154 151 150 151 154 158 163 167 168
146 130 9 98 36 22 93 89 244 203 206 169 122 134 153 143 144 127 105 86 95 82 75 109 130 99 49 65 80 29 84 120 139 147 148 145 149 152 153 150 145 144 145 142 138 135 135 138 139 137 138 140 140 141 141 142 143 143 145 145 144 145 146 146 147 145 145 146 145 144 143 142 142 144 146 146 145 144 145 144 147 149 149 154 159 159 161 167 173 169 173 176 178 189 190 190 191
147 99 26 103 63 39 60 5 272 228 289 72 104 116 150 137 120 93 57 25 91 99 84 164 110 96 93 66 83 7 76 122 139 142 146 146 149 151 152 151 147 146 148 147 143 140 139 141 142 139 140 142 143 142 142 144 144 145 146 146 147 149 148 149 149 149 150 150 151 150 149 147 149 153 154 155 154 154 152 153 156 157 159 164 166 167 173 176 184 185 185 189 196 208 208 208 215
85 55 133 99 69 52 27 353 264 258 277 126 111 125 141 126 100 88 80 42 66 86 62 69 71 91 109 80 71 19 111 134 136 138 146 147 149 150 151 152 151 149 149 149 148 146 143 144 143 141 143 144 144 144 144 144 145 146 147 148 150 150 150 152 152 153 154 154 156 156 157 156 158 161 161 162 162 163 162 164 166 167 172 175 175 179 185 181 188 196 200 210 210 206 216 218 219
25 315 110 86 57 57 75 288 289 301 160 104 94 128 136 118 96 86 106 101 65 101 114 53 78 97 87 76 46 97 128 136 136 140 147 149 149 151 151 152 156 153 151 151 150 150 148 148 145 145 147 147 147 147 147 146 147 149 149 151 151 151 153 154 155 157 158 160 163 163 164 165 168 169 168 169 170 172 172 174 173 174 183 188 190 191 197 197 203 212 223 231 229 217 221 224 219
34 277 77 100 97 100 196 187 154 98 104 101 108 148 130 104 100 105 117 124 113 117 160 62 133 141 78 62 72 113 128 135 140 143 147 149 150 152 152 153 158 157 155 153 153 153 152 152 150 151 152 150 149 150 151 151 151 152 153 154 154 154 155 157 158 160 162 166 170 168 169 173 175 175 176 178 181 182 181 187 187 186 198 209 213 213 221 229 225 223 229 230 232 227 220 228 229
165 164 85 81 124 129 150 145 149 103 79 105 137 141 110 86 101 126 118 116 114 117 165 141 142 118 85 96 111 129 136 139 142 144 147 148 150 152 153 155 158 160 159 158 157 156 156 157 156 157 156 152 151 154 156 156 156 157 159 159 160 160 161 163 163 165 168 170 174 174 177 180 180 181 182 185 194 197 190 198 204 203 218 232 239 244 250 252 246 243 249 248 246 239 220 226 236
178 163 112 76 24 94 92 108 155 114 93 284 118 112 92 72 102 115 115 112 80 97 124 120 124 93 98 130 130 159 150 146 146 146 148 147 149 150 153 157 160 164 164 164 163 162 162 162 161 160 158 152 152 157 157 157 159 161 163 164 165 166 169 170 169 172 175 176 178 182 184 183 186 185 184 191 201 208 200 203 217 223 239 250 254 263 272 271 271 271 268 268 262 253 241 237 240
176 117 96 89 29 33 66 103 137 114 118 288 131 111 80 74 110 100 116 114 47 92 111 116 127 88 145 166 166 174 154 151 148 145 147 146 148 148 151 157 161 168 171 172 169 170 168 165 164 161 159 156 156 160 159 159 161 164 165 166 169 169 173 175 174 177 180 184 185 187 189 188 189 185 191 200 202 210 213 216 227 235 246 255 258 265 274 280 286 283 278 275 269 263 268 266 257
161 95 71 73 46 44 75 81 94 103 337 307 149 111 86 57 86 88 150 116 104 109 90 143 197 97 155 174 145 145 146 149 146 143 144 144 147 148 151 155 162 171 176 178 174 177 175 170 169 164 164 164 163 164 164 165 164 168 169 169 173 173 176 179 180 183 186 191 194 193 196 199 195 192 201 208 207 209 219 228 235 240 247 255 262 264 266 271 270 267 270 266 259 260 271 271 259
76 71 64 63 66 92 136 143 125 137 136 1 101 106 103 72 57 77 54 87 109 90 39 21 33 78 125 124 127 132 138 143 142 140 140 143 146 148 153 158 164 170 178 182 181 184 183 179 176 170 172 172 169 168 168 172 170 172 175 177 180 180 183 185 186 191 193 197 204 204 205 211 210 211 211 208 209 209 214 225 232 243 252 255 261 266 265 264 261 254 255 254 249 247 252 254 243
65 73 83 88 119 117 166 170 160 144 121 85 83 110 118 121 109 123 66 64 76 57 36 50 57 68 95 111 124 128 135 139 139 139 140 144 146 150 157 162 166 170 178 183 187 192 191 188 183 179 180 179 176 174 174 177 177 178 183 186 188 188 191 193 192 195 200 202 207 210 212 216 218 225 224 213 214 215 218 227 230 237 249 251 252 264 271 270 268 261 258 260 256 244 241 241 230
86 107 86 150 192 91 108 152 137 126 126 113 89 98 116 133 137 124 99 79 73 71 50 67 77 83 100 112 122 127 134 137 139 141 143 145 148 155 159 165 168 172 179 183 188 193 194 192 190 188 187 188 186 183 183 184 184 186 190 193 195 196 198 200 199 200 203 204 206 211 216 218 221 232 237 229 223 221 225 232 232 235 247 253 249 256 267 272 275 273 270 269 264 251 240 233 222
122 108 81 219 195 93 31 107 115 122 126 113 103 101 96 119 129 91 117 104 42 111 126 94 103 113 116 120 127 131 133 136 141 144 147 150 153 158 161 166 170 177 183 185 189 192 196 195 194 195 193 193 192 191 194 195 194 196 199 200 202 205 207 207 208 211 210 209 211 215 220 221 221 230 241 241 233 228 230 230 232 240 251 260 262 259 257 264 276 279 271 260 264 263 245 232 222
105 98 138 201 169 96 28 114 120 120 123 120 125 112 85 61 71 91 122 106 335 232 202 145 137 135 130 133 135 135 135 137 143 147 151 153 156 161 166 170 174 183 186 190 194 195 199 199 198 198 199 199 197 199 203 206 206 207 207 208 210 213 218 218 218 222 220 217 217 218 221 221 222 227 234 237 236 234 232 230 233 242 252 262 267 264 260 263 273 277 271 263 265 269 257 242 231
79 2 181 183 125 103 346 143 126 121 116 111 105 96 95 70 60 95 123 130 240 230 166 140 141 141 139 140 139 138 139 142 148 152 156 159 162 164 168 174 180 188 192 197 201 202 203 203 202 202 205 207 207 208 211 214 215 215 213 213 217 219 223 226 227 228 225 223 221 219 219 221 224 227 230 232 235 235 231 228 230 241 250 258 261 263 268 271 268 266 270 274 273 269 265 250 237
94 9 87 204 110 120 170 149 119 111 96 84 88 98 109 93 66 70 94 176 243 118 111 128 133 137 139 139 141 143 147 151 156 160 163 166 169 170 173 178 185 191 196 202 206 208 208 207 207 208 210 213 215 216 217 220 220 219 219 218 219 220 223 227 230 229 226 225 222 221 222 222 225 229 234 235 236 237 235 231 230 240 245 250 256 260 268 271 265 260 263 267 269 268 264 253 244
79 72 77 34 62 117 135 115 100 92 93 92 96 94 86 97 111 75 38 346 119 97 107 122 125 130 136 139 143 148 153 157 162 165 168 172 176 176 178 183 189 193 197 204 209 210 210 210 211 213 215 215 218 221 223 227 225 222 222 220 220 221 222 225 227 228 228 228 226 224 225 226 228 233 239 242 242 243 243 238 236 244 248 249 252 255 261 264 260 258 255 253 257 262 263 259 257
50 39 68 75 64 93 100 98 100 96 103 108 90 85 98 115 118 69 13 29 97 104 113 120 123 129 137 143 147 150 154 159 162 167 171 177 179 179 183 189 193 196 200 205 208 210 211 211 212 215 216 217 219 223 228 231 231 228 225 223 223 222 223 225 226 227 228 229 229 228 228 228 228 231 236 240 244 247 246 243 243 247 251 251 251 250 253 258 256 254 253 252 254 257 260 261 261
39 48 47 105 100 102 110 102 102 105 109 106 88 71 70 104 100 52 9 71 103 110 119 125 127 132 143 147 152 154 156 162 164 168 173 178 180 184 190 194 199 203 207 209 208 211 212 212 215 216 216 219 221 225 229 232 234 233 230 228 227 225 226 229 231 232 232 233 233 232 230 231 231 230 231 234 237 241 243 244 246 248 251 253 254 249 244 250 255 254 254 255 256 257 259 262 263
149 81 56 81 105 111 115 111 117 110 70 89 94 73 15 21 80 69 18 102 113 117 122 130 130 135 147 147 154 157 160 166 166 166 167 175 184 191 196 199 205 208 212 213 213 214 214 214 217 218 218 221 225 228 231 232 235 237 237 236 234 232 233 235 236 237 238 239 239 238 237 239 240 238 237 237 238 238 240 243 246 248 250 252 256 253 245 247 253 256 256 256 258 259 262 265 266
116 104 71 25 73 84 82 115 149 118 74 96 94 78 21 21 46 82 89 116 118 124 126 128 125 131 141 141 150 155 162 166 166 167 170 180 189 194 200 203 207 211 215 218 218 217 216 217 219 221 222 224 227 232 234 234 235 238 241 242 241 241 240 240 239 240 242 242 241 242 243 245 246 247 246 245 244 242 241 243 246 249 252 252 253 254 252 252 254 257 257 255 254 256 260 263 266
108 107 94 21 52 93 112 135 209 137 127 236 78 62 7 12 16 22 92 114 114 117 121 120 119 126 133 140 146 151 163 166 171 181 185 189 192 196 202 206 208 211 217 221 221 220 219 220 221 223 225 227 230 234 238 239 240 242 244 246 247 247 246 244 242 242 243 243 242 241 242 245 249 252 252 252 251 251 251 250 251 252 254 255 253 253 254 255 256 257 257 255 251 249 251 256 261
99 86 102 101 64 130 221 263 262 151 127 284 53 74 315 340 12 46 102 122 117 110 112 119 120 128 134 143 149 154 166 171 183 192 194 196 197 200 205 209 211 214 219 221 223 225 224 223 224 225 227 229 232 236 241 244 247 248 249 251 252 252 252 250 248 247 247 247 244 241 239 240 246 251 254 255 256 258 260 260 259 256 256 257 256 254 254 254 255 257 258 256 252 248 246 247 252
104 86 78 103 123 203 261 280 271 116 91 354 75 120 254 286 8 54 111 127 123 116 109 122 128 134 139 149 157 163 175 184 191 195 198 201 202 204 207 212 215 217 220 222 225 228 228 227 226 226 228 232 235 238 242 246 250 253 255 257 258 259 258 257 256 255 254 252 249 246 242 240 243 250 254 256 257 261 265 267 267 263 259 257 256 255 255 254 253 254 256 257 254 249 245 242 244
66 112 45 352 143 211 288 260 202 120 268 14 73 124 243 249 261 52 101 123 119 116 109 121 134 141 146 157 165 168 181 191 195 200 204 206 206 207 209 215 218 220 222 225 228 229 229 229 227 228 231 235 239 243 246 249 253 256 260 263 264 264 262 260 258 256 256 257 254 248 244 242 243 246 250 254 257 258 262 267 269 268 262 257 255 253 253 254 252 251 252 255 255 251 247 242 241
355 104 178 240 151 184 283 257 220 118 157 357 51 136 187 247 205 69 93 126 117 112 114 122 133 147 153 159 167 168 177 191 201 207 210 210 211 210 212 219 222 224 226 228 228 228 229 229 229 231 234 238 243 247 251 256 259 262 265 269 270 268 266 265 261 257 255 253 250 246 244 245 247 249 251 254 257 257 258 260 262 265 263 258 254 251 252 253 252 251 251 252 254 253 250 246 243
317 58 145 217 168 170 184 233 248 88 93 14 42 112 169 168 117 79 63 126 125 123 130 136 138 144 150 155 163 171 181 191 204 209 210 212 214 213 216 223 227 228 229 230 231 231 232 232 232 234 237 242 247 252 256 258 261 266 268 269 270 269 269 271 271 266 259 253 249 247 246 244 246 251 252 252 255 256 258 259 258 260 262 261 257 252 252 254 252 251 251 252 254 252 251 250 248
188 142 129 181 185 196 187 198 232 87 79 71 80 100 142 123 102 82 30 77 129 131 132 138 139 137 133 132 144 164 190 204 224 217 209 211 214 215 218 223 227 230 232 233 234 234 233 234 236 238 242 246 250 255 258 259 265 272 273 271 271 272 270 270 273 272 266 263 257 251 247 244 248 255 255 255 256 256 259 260 257 255 257 261 261 255 252 253 252 251 252 254 255 253 252 252 252
156 154 140 161 173 223 215 164 14 93 86 56 99 126 141 132 120 109 59 23 111 122 118 126 131 128 117 102 99 87 119 260 302 237 208 207 208 211 215 221 225 229 235 237 238 238 237 236 238 242 246 249 252 254 260 267 270 277 281 280 279 279 275 270 270 269 266 268 269 266 261 258 262 268 267 264 263 262 263 262 258 257 257 257 256 254 254 255 255 256 256 257 259 256 252 251 250
130 126 133 174 171 175 171 64 5 79 95 9 71 129 142 145 133 122 106 76 118 135 138 146 150 143 133 125 114 83 40 328 12 108 188 193 196 201 208 216 222 230 238 241 241 241 240 238 240 244 249 254 259 263 274 283 279 273 278 285 291 295 292 285 283 281 277 279 278 275 271 266 268 272 271 272 267 264 268 267 262 260 258 254 251 253 258 259 257 260 261 260 259 255 252 251 247
132 143 147 167 169 152 102 105 351 27 89 17 99 121 129 141 117 110 125 135 164 167 160 165 165 163 155 141 136 108 8 343 44 85 136 164 181 192 202 210 218 230 240 243 245 245 243 241 242 246 249 256 267 280 292 297 293 283 277 285 296 303 306 303 300 296 289 282 274 273 274 264 258 258 259 271 271 264 269 268 259 251 247 245 249 257 263 262 256 256 259 260 256 251 251 252 245
126 141 141 145 165 136 69 43 7 23 94 89 122 123 124 317 74 93 129 153 194 240 211 187 164 162 183 165 146 124 59 25 36 65 108 147 172 183 193 204 213 227 238 243 244 244 242 239 242 246 250 260 272 283 291 296 300 303 302 303 303 303 307 308 307 306 297 284 271 272 270 247 242 257 277 298 287 262 256 253 245 240 240 241 252 264 268 265 259 255 255 254 251 250 252 251 245
111 132 130 157 185 152 115 15 18 33 81 125 124 107 346 324 43 99 152 169 142 47 347 257 177 165 182 185 158 144 130 108 84 30 106 150 172 183 191 201 212 224 232 237 237 236 238 238 243 249 255 266 275 279 285 294 305 313 315 317 315 308 307 306 307 310 308 300 291 297 303 288 304 328 333 331 316 290 270 261 255 252 253 256 263 266 264 262 259 256 254 250 245 246 249 246 242
49 141 138 156 175 139 118 143 98 45 46 110 115 64 326 305 185 200 276 28 122 92 93 243 245 166 150 155 161 176 167 164 176 194 200 182 181 188 194 203 212 220 225 232 236 238 242 243 246 247 249 265 288 304 312 316 321 324 323 325 325 319 316 315 315 316 318 319 321 325 329 326 330 333 332 332 322 304 291 281 269 259 260 263 261 258 259 259 255 251 248 245 240 237 241 243 240
25 212 169 160 150 117 115 128 105 61 27 199 127 86 279 294 254 223 268 305 170 98 149 212 233 187 156 160 181 206 200 193 205 204 203 198 189 187 189 195 199 204 211 216 225 232 237 243 255 267 279 325 348 355 355 347 339 336 334 334 332 327 323 322 323 322 321 323 323 323 322 320 322 324 326 328 317 301 289 279 265 259 263 259 249 247 250 250 248 246 242 244 244 238 238 245 244
105 204 158 140 130 121 134 141 113 114 195 215 116 125 236 304 272 226 213 210 226 238 206 221 227 205 184 180 189 202 202 204 226 232 218 201 191 186 186 189 189 193 199 201 211 220 228 254 313 9 23 24 18 9 359 352 348 343 340 336 329 322 317 319 324 324 321 320 319 319 321 321 318 315 316 323 318 300 284 276 266 255 253 247 242 240 240 240 241 242 241 245 250 243 237 240 244
152 185 134 132 137 141 156 150 122 164 162 86 68 102 122 286 262 222 168 185 238 247 230 226 223 215 196 191 197 200 204 201 202 214 216 207 197 190 188 189 187 190 197 200 211 220 222 254 37 47 35 21 10 3 358 356 354 350 348 342 333 326 320 318 321 322 320 321 322 321 324 324 318 311 307 316 319 301 281 268 256 241 234 232 235 239 238 237 238 238 234 233 237 238 234 232 238
170 162 132 136 143 147 155 133 104 110 110 115 247 124 109 261 272 262 157 193 233 232 224 219 214 215 202 196 203 204 209 209 206 207 209 209 201 195 192 189 186 188 193 199 200 183 150 118 84 44 14 5 3 3 0 360 359 356 354 348 341 335 329 324 323 323 324 328 327 324 327 327 321 315 310 313 313 296 280 264 248 241 237 232 234 241 240 235 236 237 232 228 230 234 233 226 229
140 122 93 82 82 85 90 103 96 64 81 208 219 178 173 269 275 214 155 213 229 221 218 213 208 211 204 200 206 207 211 215 218 216 215 212 203 198 194 186 181 177 169 170 164 147 135 115 74 22 3 358 354 355 355 358 1 1 1 356 347 341 337 333 329 330 334 335 333 330 330 332 327 324 319 318 313 293 281 270 255 250 251 247 242 243 239 234 236 238 238 238 237 234 230 225 227
132 100 73 70 51 42 52 54 75 73 326 252 221 184 181 277 270 201 182 218 215 197 200 207 205 209 206 203 205 205 207 211 217 220 223 221 210 201 195 184 175 165 155 152 148 140 133 116 60 17 1 349 340 339 340 345 351 357 359 356 350 348 346 345 342 342 345 343 340 337 337 336 334 333 329 324 320 301 281 269 262 264 267 266 259 251 245 243 242 241 242 246 244 237 234 235 236
109 85 90 99 28 15 42 5 41 108 251 265 237 168 153 245 260 216 215 249 196 176 191 198 200 205 204 203 206 205 203 207 212 216 222 222 213 202 191 180 169 161 158 155 150 144 137 76 9 0 353 340 330 328 329 333 339 344 348 348 346 345 346 349 349 349 350 349 346 345 347 347 347 348 347 343 336 319 295 280 280 286 284 280 277 270 266 265 257 244 236 245 248 244 242 242 239
83 80 87 98 21 19 54 319 137 190 246 254 177 131 144 236 250 222 225 244 220 191 197 196 196 198 198 201 205 204 202 206 211 213 215 215 207 197 183 172 165 161 163 160 155 148 114 340 340 345 347 342 332 327 325 326 328 332 338 339 337 337 340 346 351 352 352 351 347 346 349 352 352 352 350 346 342 332 316 303 298 296 292 288 286 283 281 279 273 259 250 256 256 249 246 244 241
105 123 111 105 84 69 274 266 255 255 253 238 251 130 193 270 268 210 215 235 221 202 203 199 195 193 195 200 199 198 200 205 212 212 208 206 202 195 179 168 164 163 166 164 159 173 292 308 325 334 334 331 328 326 323 320 319 324 330 331 327 328 332 335 340 344 346 346 344 343 344 347 348 347 344 339 334 328 317 307 299 294 291 289 286 286 284 280 278 273 267 263 256 254 256 253 250
104 153 131 132 148 151 205 226 202 246 246 238 321 294 187 227 238 202 216 246 227 201 198 192 193 196 194 192 191 196 205 209 213 213 210 210 202 191 177 169 165 166 170 169 175 209 250 281 312 319 316 320 324 323 319 311 309 317 323 320 317 319 324 329 330 332 334 335 337 338 339 341 341 340 340 337 331 324 317 309 302 296 291 288 284 283 282 278 277 276 273 267 261 261 262 255 252
105 134 107 136 173 147 150 186 177 184 237 257 280 242 208 222 246 244 257 267 227 196 185 175 186 194 180 180 193 201 210 211 210 209 213 213 200 188 179 173 169 170 172 176 189 206 228 262 294 302 304 314 319 317 310 303 305 314 318 312 311 316 324 329 330 330 328 327 329 332 334 336 336 337 340 340 337 332 326 319 312 306 300 296 291 285 282 279 278 277 274 270 267 266 264 257 253
140 102 151 205 166 118 119 170 105 67 93 256 276 269 298 321 291 304 6 21 179 178 179 177 183 183 177 191 199 202 210 209 205 206 208 201 190 188 187 180 174 174 178 185 195 207 228 258 279 286 294 306 314 312 305 300 304 312 315 312 312 321 330 334 333 331 328 324 323 325 329 332 335 339 342 342 340 338 334 327 321 316 310 305 299 292 287 282 280 279 275 270 266 265 263 259 255
130 156 187 175 130 96 100 118 21 45 123 270 319 276 294 347 305 305 352 82 180 184 182 176 177 181 189 200 200 203 209 203 199 203 202 195 189 192 193 187 182 182 187 193 199 215 236 255 269 273 283 296 306 309 302 300 305 310 313 314 315 322 329 331 332 331 327 324 322 323 327 330 334 338 341 342 342 342 339 334 328 323 318 312 306 300 293 286 281 278 276 273 269 266 262 259 255
115 158 151 117 135 138 69 110 135 98 195 286 318 305 274 206 226 278 274 203 194 192 183 177 183 188 195 201 201 206 206 195 193 197 195 192 194 198 197 191 187 188 193 197 205 224 238 250 259 264 274 285 297 302 296 296 302 305 312 316 316 321 326 329 331 330 328 325 324 328 330 331 334 336 336 339 342 342 340 337 333 329 324 319 314 308 301 296 288 281 277 274 272 268 263 260 256
52 73 46 42 131 154 156 143 153 156 158 263 304 328 282 225 216 222 229 214 187 179 188 193 194 194 196 198 198 203 202 193 190 191 191 193 199 204 200 194 191 191 194 200 213 228 236 245 250 256 267 278 290 291 286 291 297 301 312 321 320 322 330 337 337 332 327 323 323 327 330 332 336 336 333 333 336 339 337 335 334 330 326 322 319 314 309 304 299 290 283 278 276 272 267 262 258
84 73 19 5 91 126 151 106 100 132 142 172 233 307 271 250 210 199 226 219 185 183 192 198 199 196 197 198 197 200 198 190 186 186 187 196 204 207 203 198 195 194 198 206 220 230 235 240 244 250 261 272 281 280 276 287 296 299 307 320 322 321 327 336 338 334 327 317 311 317 324 329 333 334 332 328 327 331 333 330 328 327 327 325 322 319 316 311 305 299 293 288 283 277 270 264 259
147 161 181 159 137 125 113 2 310 92 127 165 164 233 266 259 203 209 229 208 190 195 194 196 202 199 199 201 200 198 190 182 182 182 184 195 203 204 201 199 196 196 202 212 223 229 233 236 240 247 255 264 272 272 272 286 300 302 304 312 318 317 319 324 329 332 331 322 312 312 317 322 325 329 329 325 322 323 323 321 319 318 320 321 321 320 317 312 307 303 300 296 290 282 272 265 260